Location: Chrome
(40.5765°N, 74.2163°W)
Time: 01:30:21
(UTC+00:00)

Cosmos 2026 Rocket - Visible Passes

Search period start: 03 April 2020 00:00
Search period end: 13 April 2020 00:00
Orbit: 938 x 1002 km, 82.9° (Epoch: 01 April)

Date Brightness Start Highest point End Pass type
(mag) Time Alt. Az. Time Alt. Az. Time Alt. Az.
03 Apr 5.4 09:11:16 10° SSE 09:16:53 40° E 09:22:28 10° NNE visible
04 Apr 4.3 09:34:27 10° S 09:40:33 71° E 09:46:36 10° NNE visible
05 Apr 6.6 08:16:00 10° ESE 08:19:46 17° E 08:23:30 10° NE visible
05 Apr 4.0 09:58:17 10° SSW 10:04:21 66° W 10:10:24 10° N visible
06 Apr 5.7 08:37:58 10° SSE 08:43:13 31° E 08:48:25 10° NNE visible
07 Apr 4.6 09:00:54 10° SSE 09:06:49 55° E 09:12:43 10° NNE visible
08 Apr 6.6 07:43:37 10° ESE 07:46:11 13° E 07:48:45 10° NE visible
08 Apr 3.9 09:24:27 10° S 09:30:33 84° W 09:36:39 10° N visible
09 Apr 6.0 08:04:51 10° SE 08:09:34 24° E 08:14:16 10° NNE visible
09 Apr 4.2 09:48:37 10° SSW 09:54:27 47° WNW 10:00:17 10° N visible
10 Apr 5.0 08:27:25 10° SSE 08:33:06 43° E 08:38:47 10° NNE visible
11 Apr 4.1 08:50:44 10° S 08:56:47 77° E 09:02:51 10° N visible
12 Apr 6.3 07:31:56 10° SE 07:35:57 19° E 07:39:57 10° NE visible
12 Apr 4.0 09:14:37 10° SSW 09:20:37 60° W 09:26:37 10° N visible
